Home   Weather   Brownsville   Past weeks
Flag for USA

Past Weather in Brownsville, Texas, USA — Yesterday and Last 2 Weeks

Now
83 °F

Clear.


Feels Like: 95 °F
Forecast: 96 / 83 °F
Wind: 12 mph from South

Location: Brownsville / South Padre Island International Airport

Current Time: Jun 20, 2019 at 12:28:43 am

Latest Report: Jun 19, 2019 at 11:53 pm


Visibility: 10 mi

Pressure: 29.81 "Hg

Humidity: 91%

Dew Point: 80 °F

Location of BrownsvilleLocation

Past Weather in Brownsville — Graph

°F

Brownsville Temperature Yesterday

Maximum temperature yesterday: 98 °F (at 1:53 pm)
Minimum temperature yesterday: 79 °F (at 2:53 am)
Average temperature yesterday: 87 °F

High & Low Weather Summary for the Past Weeks

 TemperatureHumidityPressure
High101 °F (Jun 7, 1:53 pm)100% (Jun 6, 3:53 am)30.09 "Hg (Jun 6, 3:53 am)
Low74 °F (Jun 12, 5:03 am)48% (Jun 7, 1:53 pm)29.67 "Hg (Jun 7, 5:53 pm)
Average86 °F80%29.87 "Hg
* Reported Jun 4 10:07 pm — Jun 19 10:53 pm, Brownsville. Weather by CustomWeather, © 2019

Note: Actual official high and low records may vary slightly from our data, if they occured in-between our weather recording intervals... More about our weather records

Advertising

Brownsville Weather History for the Previous 24 Hours

Scroll right to see more
 ConditionsComfort  
Time TempWeatherWind HumidityBarometerVisibility
10:53 pm
Wed, Jun 19
83 °FPassing clouds.10 mph91%29.80 "Hg10 mi
9:53 pm84 °FClear.13 mph88%29.79 "Hg10 mi
8:53 pm85 °FPassing clouds.12 mph86%29.78 "Hg10 mi
7:53 pm87 °FSunny.17 mph77%29.76 "Hg10 mi
6:53 pm90 °FSunny.16 mph70%29.76 "Hg10 mi
5:53 pm91 °FScattered clouds.18 mph68%29.76 "Hg10 mi
4:53 pm94 °FPassing clouds.22 mph62%29.77 "Hg10 mi
3:53 pm97 °FSunny.20 mph55%29.79 "Hg10 mi
2:53 pm97 °FScattered clouds.20 mph55%29.80 "Hg10 mi
1:53 pm98 °FSunny.18 mph53%29.82 "Hg10 mi
12:53 pm97 °FSunny.18 mph55%29.83 "Hg10 mi
11:53 am96 °FSunny.17 mph54%29.85 "Hg10 mi
10:53 am94 °FPassing clouds.15 mph60%29.85 "Hg10 mi
9:53 am91 °FPassing clouds.17 mph66%29.85 "Hg10 mi
8:53 am86 °FScattered clouds.16 mph83%29.85 "Hg10 mi
7:53 am82 °FSunny.10 mph97%29.85 "Hg10 mi
6:53 am79 °FSunny.7 mph100%29.85 "Hg10 mi
5:53 am79 °FClear.3 mph97%29.85 "Hg10 mi
4:53 am79 °FClear.3 mph97%29.85 "Hg10 mi
3:53 am80 °FPassing clouds.6 mph94%29.85 "Hg10 mi
2:53 am79 °FClear.6 mph97%29.86 "Hg10 mi
1:53 am80 °FClear.6 mph94%29.87 "Hg10 mi
12:53 am81 °FClear.5 mph94%29.90 "Hg10 mi
Weather by CustomWeather, © 2019

See weather overview